| time (UTC) | temp F | wind direction | speed MPH | gust MPH | rain 1hr in | rain 24hr in | rain mn in | humidity % | barometer mb |
| 20260903035536 | 76 | 94 | 0.0 | 0.0 | 0.00 | 0.16 | 0.00 | 81 | 1009.4 |
| 20260903035038 | 76 | 94 | 0.0 | 0.0 | 0.00 | 0.16 | 0.00 | 81 | 1009.4 |
| 20260903034542 | 76 | 94 | 0.0 | 0.0 | 0.00 | 0.16 | 0.00 | 81 | 1009.5 |
| 20260903034035 | 76 | 94 | 0.0 | 0.0 | 0.00 | 0.16 | 0.00 | 81 | 1009.4 |
| 20260903033539 | 76 | 94 | 0.0 | 0.0 | 0.00 | 0.16 | 0.00 | 81 | 1009.3 |
| 20260903033036 | 76 | 94 | 0.0 | 0.0 | 0.00 | 0.16 | 0.00 | 80 | 1009.4 |
| 20260903032537 | 77 | 94 | 0.0 | 0.0 | 0.00 | 0.16 | 0.00 | 80 | 1009.3 |
| 20260903032035 | 77 | 94 | 0.0 | 0.0 | 0.00 | 0.16 | 0.00 | 80 | 1009.4 |
| 20260903031538 | 77 | 94 | 0.0 | 0.0 | 0.00 | 0.16 | 0.00 | 80 | 1009.3 |
| 20260903031035 | 77 | 94 | 0.0 | 0.0 | 0.00 | 0.16 | 0.00 | 79 | 1009.3 |
| 20260903030536 | 77 | 94 | 0.0 | 0.0 | 0.00 | 0.16 | 0.00 | 79 | 1009.2 |
| 20260903025540 | 78 | 94 | 0.0 | 0.0 | 0.00 | 0.16 | 0.00 | 79 | 1009.3 |
| 20260903025038 | 78 | 94 | 0.0 | 0.0 | 0.00 | 0.16 | 0.00 | 78 | 1009.2 |
| 20260903024535 | 78 | 94 | 0.0 | 0.0 | 0.00 | 0.16 | 0.00 | 78 | 1009.2 |
| 20260903024035 | 78 | 94 | 0.0 | 0.0 | 0.00 | 0.16 | 0.00 | 78 | 1009.3 |
| 20260903023538 | 78 | 94 | 0.0 | 0.0 | 0.00 | 0.16 | 0.00 | 77 | 1009.3 |
| 20260903023035 | 78 | 94 | 0.0 | 0.0 | 0.00 | 0.16 | 0.00 | 77 | 1009.2 |
| 20260903022538 | 79 | 94 | 0.0 | 0.0 | 0.00 | 0.16 | 0.00 | 77 | 1009.2 |
| 20260903022037 | 79 | 94 | 0.0 | 0.0 | 0.00 | 0.16 | 0.00 | 77 | 1009.2 |
| 20260903021534 | 79 | 94 | 0.0 | 0.0 | 0.00 | 0.16 | 0.00 | 77 | 1009.2 |
| 20260903021034 | 79 | 94 | 0.0 | 0.0 | 0.00 | 0.16 | 0.00 | 76 | 1009.2 |
| 20260903020537 | 79 | 94 | 0.0 | 0.0 | 0.00 | 0.16 | 0.00 | 76 | 1009.1 |
| 20260903015536 | 79 | 94 | 0.0 | 0.0 | 0.00 | 0.16 | 0.00 | 75 | 1009.1 |
| 20260903015036 | 79 | 94 | 0.0 | 0.0 | 0.00 | 0.16 | 0.00 | 75 | 1009.1 |
| 20260903014535 | 80 | 94 | 0.0 | 0.0 | 0.00 | 0.16 | 0.00 | 74 | 1008.9 |
| 20260903014033 | 80 | 94 | 0.0 | 3.0 | 0.00 | 0.16 | 0.00 | 74 | 1008.8 |
| 20260903013535 | 80 | 94 | 0.0 | 3.0 | 0.00 | 0.16 | 0.00 | 74 | 1008.7 |
| 20260903013033 | 80 | 94 | 0.0 | 2.0 | 0.00 | 0.16 | 0.00 | 73 | 1008.7 |
| 20260903012534 | 80 | 94 | 0.0 | 2.0 | 0.00 | 0.16 | 0.00 | 73 | 1008.6 |
| 20260903012036 | 81 | 94 | 0.0 | 2.0 | 0.00 | 0.16 | 0.00 | 72 | 1008.7 |
| 20260903011535 | 81 | 94 | 0.0 | 1.0 | 0.00 | 0.16 | 0.00 | 72 | 1008.7 |
| 20260903011032 | 81 | 94 | 0.0 | 1.0 | 0.00 | 0.16 | 0.00 | 71 | 1008.5 |
| 20260903010532 | 81 | 94 | 0.0 | 1.0 | 0.00 | 0.16 | 0.00 | 71 | 1008.5 |
| 20260903005540 | 82 | 94 | 0.0 | 1.0 | 0.00 | 0.16 | 0.00 | 70 | 1008.5 |
| 20260903005040 | 82 | 94 | 0.0 | 1.0 | 0.00 | 0.16 | 0.00 | 69 | 1008.5 |
| 20260903004538 | 82 | 94 | 0.0 | 1.0 | 0.00 | 0.16 | 0.00 | 69 | 1008.5 |
| 20260903004039 | 83 | 94 | 0.0 | 0.0 | 0.00 | 0.16 | 0.00 | 69 | 1008.5 |
| 20260903003541 | 83 | 94 | 0.0 | 0.0 | 0.00 | 0.16 | 0.00 | 68 | 1008.5 |
| 20260903003039 | 83 | 94 | 0.0 | 0.0 | 0.00 | 0.16 | 0.00 | 68 | 1008.5 |
| 20260903002538 | 83 | 94 | 0.0 | 0.0 | 0.00 | 0.16 | 0.00 | 67 | 1008.5 |
| 20260903002037 | 84 | 94 | 0.0 | 0.0 | 0.00 | 0.16 | 0.00 | 66 | 1008.4 |
| 20260903001539 | 84 | 94 | 0.0 | 0.0 | 0.00 | 0.16 | 0.00 | 66 | 1008.4 |
| 20260903001038 | 84 | 94 | 0.0 | 0.0 | 0.00 | 0.16 | 0.00 | 65 | 1008.4 |
| 20260903000538 | 85 | 94 | 0.0 | 0.0 | 0.00 | 0.16 | 0.00 | 65 | 1008.4 |
| 20260902235531 | 85 | 94 | 0.0 | 0.0 | 0.00 | 0.16 | 0.00 | 64 | 1008.5 |
| 20260902235031 | 85 | 94 | 0.0 | 0.0 | 0.00 | 0.16 | 0.00 | 64 | 1008.5 |
| 20260902234530 | 85 | 96 | 0.0 | 0.0 | 0.00 | 0.16 | 0.00 | 63 | 1008.5 |
| 20260902234030 | 85 | 96 | 0.0 | 0.0 | 0.00 | 0.16 | 0.00 | 63 | 1008.6 |
| 20260902233529 | 85 | 96 | 0.0 | 0.0 | 0.00 | 0.16 | 0.00 | 61 | 1008.5 |
| 20260902233029 | 85 | 96 | 0.0 | 0.0 | 0.00 | 0.16 | 0.00 | 61 | 1008.6 |
| 20260902232533 | 86 | 96 | 0.0 | 0.0 | 0.00 | 0.16 | 0.00 | 60 | 1008.6 |
| 20260902232033 | 86 | 96 | 0.0 | 0.0 | 0.00 | 0.16 | 0.00 | 60 | 1008.6 |
| 20260902231531 | 86 | 96 | 0.0 | 0.0 | 0.00 | 0.16 | 0.00 | 59 | 1008.6 |
| 20260902231030 | 86 | 95 | 0.0 | 0.0 | 0.00 | 0.16 | 0.00 | 59 | 1008.6 |
| 20260902230528 | 87 | 95 | 0.0 | 0.0 | 0.00 | 0.16 | 0.00 | 59 | 1008.6 |
| 20260902225531 | 87 | 95 | 0.0 | 0.0 | 0.00 | 0.16 | 0.00 | 57 | 1008.6 |
| 20260902225033 | 87 | 95 | 0.0 | 0.0 | 0.00 | 0.16 | 0.00 | 57 | 1008.6 |
| 20260902224529 | 87 | 95 | 0.0 | 0.0 | 0.00 | 0.16 | 0.00 | 57 | 1008.5 |
| 20260902224028 | 87 | 95 | 0.0 | 0.0 | 0.00 | 0.16 | 0.00 | 58 | 1008.6 |
| 20260902223528 | 86 | 94 | 0.0 | 0.0 | 0.00 | 0.16 | 0.00 | 58 | 1008.6 |
| 20260902223030 | 86 | 95 | 0.0 | 0.0 | 0.00 | 0.16 | 0.00 | 58 | 1008.6 |
| 20260902222526 | 86 | 95 | 0.0 | 0.0 | 0.00 | 0.16 | 0.00 | 58 | 1008.6 |
| 20260902222027 | 86 | 95 | 0.0 | 0.0 | 0.00 | 0.16 | 0.00 | 58 | 1008.6 |
| 20260902221529 | 86 | 95 | 0.0 | 0.0 | 0.00 | 0.16 | 0.00 | 57 | 1008.6 |
| 20260902221026 | 86 | 94 | 0.0 | 0.0 | 0.00 | 0.16 | 0.00 | 58 | 1008.6 |
| 20260902220526 | 86 | 94 | 0.0 | 0.0 | 0.00 | 0.16 | 0.00 | 58 | 1008.7 |
| 20260902215525 | 86 | 93 | 0.0 | 0.0 | 0.00 | 0.16 | 0.00 | 58 | 1008.7 |
| 20260902215024 | 86 | 94 | 0.0 | 0.0 | 0.00 | 0.16 | 0.00 | 57 | 1008.7 |
| 20260902214524 | 86 | 94 | 0.0 | 0.0 | 0.00 | 0.16 | 0.00 | 57 | 1008.7 |
| 20260902214024 | 86 | 94 | 0.0 | 0.0 | 0.00 | 0.16 | 0.00 | 57 | 1008.7 |
| 20260902213522 | 86 | 70 | 0.0 | 0.0 | 0.00 | 0.16 | 0.00 | 58 | 1008.7 |
| 20260902213027 | 86 | 67 | 0.0 | 0.0 | 0.00 | 0.16 | 0.00 | 59 | 1008.8 |
| 20260902212522 | 86 | 67 | 0.0 | 0.0 | 0.00 | 0.16 | 0.00 | 57 | 1008.8 |
| 20260902212022 | 86 | 67 | 0.0 | 0.0 | 0.00 | 0.16 | 0.00 | 58 | 1008.9 |
| 20260902211520 | 86 | 67 | 0.0 | 0.0 | 0.00 | 0.16 | 0.00 | 58 | 1008.8 |
| 20260902211019 | 85 | 73 | 0.0 | 0.0 | 0.00 | 0.16 | 0.00 | 58 | 1008.9 |
| 20260902210519 | 85 | 61 | 0.0 | 0.0 | 0.00 | 0.16 | 0.00 | 59 | 1008.8 |
| 20260902205519 | 84 | 59 | 0.0 | 0.0 | 0.00 | 0.16 | 0.00 | 59 | 1008.9 |
| 20260902205019 | 85 | 59 | 0.0 | 0.0 | 0.00 | 0.16 | 0.00 | 59 | 1008.9 |
| 20260902204518 | 85 | 59 | 0.0 | 0.0 | 0.00 | 0.16 | 0.00 | 59 | 1008.9 |
| 20260902204017 | 84 | 61 | 0.0 | 0.0 | 0.00 | 0.16 | 0.00 | 59 | 1009.0 |
| 20260902203523 | 85 | 106 | 0.0 | 0.0 | 0.00 | 0.16 | 0.00 | 59 | 1009.0 |
| 20260902203017 | 84 | 101 | 0.0 | 0.0 | 0.00 | 0.16 | 0.00 | 60 | 1009.0 |
| 20260902202516 | 84 | 101 | 0.0 | 0.0 | 0.00 | 0.16 | 0.00 | 59 | 1009.1 |
| 20260902202015 | 84 | 101 | 0.0 | 0.0 | 0.00 | 0.16 | 0.00 | 58 | 1009.2 |
| 20260902201519 | 85 | 76 | 0.0 | 0.0 | 0.00 | 0.16 | 0.00 | 59 | 1009.3 |
| 20260902201014 | 85 | 84 | 0.0 | 0.0 | 0.00 | 0.16 | 0.00 | 58 | 1009.4 |
| 20260902200517 | 85 | 82 | 0.0 | 0.0 | 0.00 | 0.16 | 0.00 | 59 | 1009.4 |
| 20260902195515 | 85 | 102 | 0.0 | 0.0 | 0.00 | 0.16 | 0.00 | 58 | 1009.7 |
| 20260902195012 | 85 | 102 | 0.0 | 0.0 | 0.00 | 0.16 | 0.00 | 57 | 1009.8 |
| 20260902194516 | 86 | 103 | 0.0 | 0.0 | 0.00 | 0.16 | 0.00 | 57 | 1009.9 |
| 20260902194011 | 85 | 98 | 0.0 | 0.0 | 0.00 | 0.16 | 0.00 | 58 | 1009.9 |
| 20260902193510 | 85 | 98 | 0.0 | 0.0 | 0.00 | 0.16 | 0.00 | 58 | 1009.9 |
| 20260902193009 | 84 | 61 | 0.0 | 0.0 | 0.00 | 0.16 | 0.00 | 61 | 1009.8 |
| 20260902192507 | 83 | 61 | 0.0 | 0.0 | 0.00 | 0.16 | 0.00 | 61 | 1009.8 |
| 20260902192010 | 84 | 67 | 0.0 | 0.0 | 0.00 | 0.16 | 0.00 | 61 | 1009.9 |
| 20260902191508 | 83 | 74 | 0.0 | 0.0 | 0.00 | 0.16 | 0.00 | 62 | 1009.9 |
| 20260902191005 | 83 | 74 | 0.0 | 0.0 | 0.00 | 0.16 | 0.00 | 62 | 1010.0 |
| 20260902190504 | 82 | 76 | 0.0 | 0.0 | 0.00 | 0.16 | 0.00 | 64 | 1010.0 |
| 20260902185505 | 82 | 40 | 0.0 | 0.0 | 0.00 | 0.16 | 0.00 | 63 | 1009.9 |
| 20260902185008 | 82 | 38 | 0.0 | 0.0 | 0.00 | 0.16 | 0.00 | 64 | 1009.9 |
| 20260902184505 | 82 | 38 | 0.0 | 0.0 | 0.00 | 0.16 | 0.00 | 63 | 1009.8 |
| 20260902184004 | 83 | 38 | 0.0 | 0.0 | 0.00 | 0.16 | 0.00 | 63 | 1009.9 |
| 20260902183503 | 83 | 73 | 0.0 | 0.0 | 0.00 | 0.16 | 0.00 | 63 | 1010.0 |
| 20260902183001 | 82 | 86 | 0.0 | 0.0 | 0.00 | 0.16 | 0.00 | 64 | 1010.0 |
| 20260902182500 | 82 | 86 | 0.0 | 0.0 | 0.00 | 0.16 | 0.00 | 65 | 1010.0 |
| 20260902182059 | 82 | 86 | 0.0 | 0.0 | 0.00 | 0.16 | 0.00 | 64 | 1010.1 |
| 20260902181559 | 82 | 76 | 0.0 | 0.0 | 0.00 | 0.16 | 0.00 | 64 | 1010.2 |
| 20260902181057 | 81 | 117 | 0.0 | 0.0 | 0.00 | 0.16 | 0.00 | 65 | 1010.3 |
| 20260902180557 | 81 | 117 | 0.0 | 0.0 | 0.00 | 0.16 | 0.00 | 66 | 1010.3 |
| 20260902175556 | 80 | 120 | 0.0 | 0.0 | 0.00 | 0.16 | 0.00 | 67 | 1010.6 |
| 20260902175055 | 80 | 119 | 0.0 | 0.0 | 0.00 | 0.16 | 0.00 | 68 | 1010.8 |
| 20260902174554 | 80 | 120 | 0.0 | 0.0 | 0.00 | 0.16 | 0.00 | 69 | 1011.0 |
| 20260902174052 | 79 | 120 | 0.0 | 0.0 | 0.00 | 0.16 | 0.00 | 69 | 1011.1 |
| 20260902173552 | 79 | 117 | 0.0 | 0.0 | 0.00 | 0.16 | 0.00 | 70 | 1011.3 |
| 20260902173051 | 79 | 116 | 0.0 | 0.0 | 0.00 | 0.16 | 0.00 | 70 | 1011.4 |
| 20260902172550 | 79 | 116 | 0.0 | 0.0 | 0.00 | 0.16 | 0.00 | 69 | 1011.4 |
| 20260902172053 | 79 | 190 | 0.0 | 0.0 | 0.00 | 0.16 | 0.00 | 69 | 1011.3 |
| 20260902171603 | 79 | 190 | 0.0 | 0.0 | 0.00 | 0.16 | 0.00 | 71 | 1011.4 |
| 20260902171046 | 78 | 130 | 0.0 | 0.0 | 0.00 | 0.16 | 0.00 | 72 | 1011.6 |
| 20260902170545 | 77 | 124 | 0.0 | 0.0 | 0.00 | 0.16 | 0.00 | 72 | 1011.3 |
| 20260902165544 | 76 | 123 | 0.0 | 0.0 | 0.00 | 0.16 | 0.00 | 73 | 1011.2 |
| 20260902165043 | 76 | 123 | 0.0 | 0.0 | 0.00 | 0.16 | 0.00 | 74 | 1011.3 |
| 20260902164542 | 75 | 123 | 0.0 | 0.0 | 0.00 | 0.16 | 0.00 | 75 | 1011.4 |
| 20260902164043 | 75 | 123 | 0.0 | 0.0 | 0.00 | 0.16 | 0.00 | 76 | 1011.4 |
| 20260902163539 | 75 | 123 | 0.0 | 0.0 | 0.00 | 0.16 | 0.00 | 75 | 1011.4 |
| 20260902163038 | 75 | 121 | 0.0 | 0.0 | 0.00 | 0.16 | 0.00 | 74 | 1011.2 |
| 20260902162537 | 75 | 123 | 0.0 | 0.0 | 0.00 | 0.16 | 0.16 | 75 | 1011.2 |
| 20260902162038 | 75 | 108 | 0.0 | 0.0 | 0.00 | 0.16 | 0.16 | 74 | 1011.2 |
| 20260902161537 | 75 | 150 | 0.0 | 0.0 | 0.00 | 0.16 | 0.16 | 75 | 1011.2 |
| 20260902161037 | 75 | 161 | 0.0 | 0.0 | 0.00 | 0.16 | 0.16 | 76 | 1011.2 |
| 20260902160536 | 74 | 122 | 0.0 | 0.0 | 0.00 | 0.16 | 0.16 | 75 | 1011.2 |
| 20260902155536 | 75 | 107 | 0.0 | 0.0 | 0.00 | 0.16 | 0.16 | 76 | 1011.0 |
| 20260902155040 | 75 | 98 | 0.0 | 0.0 | 0.00 | 0.16 | 0.16 | 76 | 1011.0 |
| 20260902154535 | 74 | 56 | 0.0 | 0.0 | 0.00 | 0.16 | 0.16 | 76 | 1010.9 |
| 20260902154035 | 74 | 123 | 0.0 | 0.0 | 0.00 | 0.16 | 0.16 | 76 | 1011.0 |
| 20260902153536 | 74 | 185 | 0.0 | 0.0 | 0.00 | 0.16 | 0.16 | 77 | 1011.1 |
| 20260902153035 | 73 | 186 | 0.0 | 0.0 | 0.00 | 0.16 | 0.16 | 79 | 1010.9 |
| 20260902152535 | 73 | 191 | 0.0 | 0.0 | 0.00 | 0.16 | 0.16 | 79 | 1010.9 |
| 20260902152034 | 72 | 159 | 0.0 | 0.0 | 0.00 | 0.16 | 0.16 | 80 | 1010.9 |
| 20260902151535 | 72 | 131 | 0.0 | 0.0 | 0.00 | 0.16 | 0.16 | 80 | 1010.9 |
| 20260902151038 | 72 | 115 | 0.0 | 0.0 | 0.00 | 0.16 | 0.16 | 81 | 1010.8 |
| 20260902150534 | 72 | 107 | 0.0 | 0.0 | 0.00 | 0.16 | 0.16 | 82 | 1010.8 |
| 20260902145537 | 71 | 119 | 0.0 | 0.0 | 0.00 | 0.16 | 0.16 | 84 | 1010.9 |
| 20260902145037 | 70 | 117 | 0.0 | 0.0 | 0.00 | 0.16 | 0.16 | 84 | 1011.0 |
| 20260902144540 | 70 | 80 | 0.0 | 0.0 | 0.00 | 0.16 | 0.16 | 86 | 1011.1 |
| 20260902144037 | 70 | 119 | 0.0 | 0.0 | 0.00 | 0.16 | 0.16 | 87 | 1011.1 |
| 20260902143537 | 69 | 131 | 0.0 | 0.0 | 0.00 | 0.16 | 0.16 | 88 | 1010.9 |
| 20260902143043 | 69 | 90 | 0.0 | 0.0 | 0.00 | 0.16 | 0.16 | 88 | 1010.9 |
| 20260902142537 | 69 | 111 | 0.0 | 0.0 | 0.00 | 0.16 | 0.16 | 89 | 1010.8 |
| 20260902142038 | 68 | 120 | 0.0 | 0.0 | 0.00 | 0.16 | 0.16 | 89 | 1010.9 |
| 20260902141536 | 68 | 124 | 0.0 | 0.0 | 0.00 | 0.16 | 0.16 | 91 | 1011.1 |
| 20260902141036 | 68 | 124 | 0.0 | 0.0 | 0.00 | 0.16 | 0.16 | 92 | 1011.4 |
| 20260902140538 | 67 | 124 | 0.0 | 0.0 | 0.00 | 0.16 | 0.16 | 92 | 1011.4 |
| 20260902135534 | 67 | 28 | 0.0 | 0.0 | 0.00 | 0.16 | 0.16 | 93 | 1011.4 |
| 20260902135033 | 66 | 28 | 0.0 | 0.0 | 0.00 | 0.16 | 0.16 | 93 | 1011.4 |
| 20260902134538 | 66 | 27 | 0.0 | 0.0 | 0.00 | 0.16 | 0.16 | 93 | 1011.2 |
| 20260902134034 | 66 | 27 | 0.0 | 0.0 | 0.00 | 0.16 | 0.16 | 93 | 1011.0 |
| 20260902133534 | 65 | 26 | 0.0 | 0.0 | 0.00 | 0.16 | 0.16 | 93 | 1011.0 |
| 20260902133043 | 65 | 26 | 0.0 | 0.0 | 0.00 | 0.16 | 0.16 | 93 | 1011.0 |
| 20260902132532 | 65 | 26 | 0.0 | 0.0 | 0.00 | 0.16 | 0.16 | 93 | 1011.0 |
| 20260902132033 | 65 | 26 | 0.0 | 0.0 | 0.00 | 0.16 | 0.16 | 93 | 1010.9 |
| 20260902131535 | 65 | 26 | 0.0 | 0.0 | 0.00 | 0.16 | 0.16 | 93 | 1011.0 |
| 20260902131033 | 64 | 26 | 0.0 | 0.0 | 0.00 | 0.16 | 0.16 | 93 | 1011.0 |
| 20260902130532 | 64 | 26 | 0.0 | 0.0 | 0.00 | 0.16 | 0.16 | 93 | 1011.2 |
| 20260902125532 | 64 | 42 | 0.0 | 0.0 | 0.00 | 0.16 | 0.16 | 93 | 1010.8 |
| 20260902125032 | 64 | 43 | 0.0 | 0.0 | 0.00 | 0.16 | 0.16 | 93 | 1010.9 |
| 20260902124532 | 64 | 51 | 0.0 | 0.0 | 0.00 | 0.16 | 0.16 | 94 | 1010.9 |
| 20260902124031 | 64 | 48 | 0.0 | 0.0 | 0.00 | 0.16 | 0.16 | 93 | 1010.9 |
| 20260902123531 | 64 | 63 | 0.0 | 0.0 | 0.00 | 0.16 | 0.16 | 93 | 1010.8 |
| 20260902123032 | 64 | 64 | 0.0 | 0.0 | 0.00 | 0.16 | 0.16 | 93 | 1010.8 |
| 20260902122532 | 64 | 64 | 0.0 | 0.0 | 0.00 | 0.16 | 0.16 | 93 | 1011.1 |
| 20260902122032 | 64 | 64 | 0.0 | 0.0 | 0.00 | 0.16 | 0.16 | 93 | 1011.1 |
| 20260902121532 | 64 | 114 | 0.0 | 0.0 | 0.00 | 0.16 | 0.16 | 93 | 1011.1 |
| 20260902121031 | 64 | 123 | 0.0 | 0.0 | 0.00 | 0.16 | 0.16 | 93 | 1011.1 |
| 20260902120531 | 63 | 130 | 0.0 | 0.0 | 0.00 | 0.16 | 0.16 | 93 | 1011.2 |
| 20260902115532 | 64 | 114 | 0.0 | 0.0 | 0.00 | 0.16 | 0.16 | 93 | 1011.0 |
| 20260902115032 | 64 | 144 | 0.0 | 0.0 | 0.00 | 0.16 | 0.16 | 93 | 1011.2 |
| 20260902114545 | 64 | 146 | 0.0 | 0.0 | 0.00 | 0.16 | 0.16 | 93 | 1011.5 |
| 20260902114032 | 64 | 128 | 0.0 | 0.0 | 0.00 | 0.16 | 0.16 | 93 | 1011.8 |
| 20260902113531 | 64 | 128 | 0.0 | 0.0 | 0.00 | 0.16 | 0.16 | 93 | 1011.7 |
| 20260902113031 | 64 | 159 | 0.0 | 0.0 | 0.00 | 0.16 | 0.16 | 93 | 1011.9 |
| 20260902112531 | 64 | 157 | 0.0 | 0.0 | 0.00 | 0.16 | 0.16 | 93 | 1011.9 |
| 20260902112031 | 64 | 122 | 0.0 | 0.0 | 0.00 | 0.16 | 0.16 | 93 | 1011.6 |
| 20260902111541 | 64 | 130 | 0.0 | 0.0 | 0.00 | 0.16 | 0.16 | 93 | 1011.7 |
| 20260902111031 | 64 | 177 | 0.0 | 0.0 | 0.00 | 0.16 | 0.16 | 93 | 1012.0 |
| 20260902110532 | 64 | 178 | 0.0 | 0.0 | 0.00 | 0.16 | 0.16 | 93 | 1012.4 |
| 20260902105530 | 64 | 163 | 0.0 | 0.0 | 0.00 | 0.16 | 0.16 | 93 | 1012.1 |
| 20260902105032 | 64 | 215 | 0.0 | 0.0 | 0.00 | 0.16 | 0.16 | 93 | 1012.1 |
| 20260902104530 | 64 | 219 | 0.0 | 0.0 | 0.00 | 0.16 | 0.16 | 92 | 1012.0 |
| 20260902104029 | 64 | 215 | 0.0 | 0.0 | 0.00 | 0.16 | 0.16 | 92 | 1012.1 |
| 20260902103529 | 64 | 186 | 0.0 | 0.0 | 0.00 | 0.16 | 0.16 | 92 | 1012.0 |
| 20260902103029 | 64 | 186 | 0.0 | 0.0 | 0.00 | 0.16 | 0.16 | 93 | 1011.8 |
| 20260902102528 | 64 | 186 | 0.0 | 0.0 | 0.00 | 0.16 | 0.16 | 93 | 1011.7 |
| 20260902102028 | 64 | 186 | 0.0 | 0.0 | 0.00 | 0.16 | 0.16 | 92 | 1011.5 |
| 20260902101527 | 64 | 186 | 0.0 | 0.0 | 0.00 | 0.16 | 0.16 | 92 | 1011.5 |
| 20260902101028 | 64 | 186 | 0.0 | 0.0 | 0.00 | 0.16 | 0.16 | 92 | 1011.3 |
| 20260902100528 | 64 | 186 | 0.0 | 0.0 | 0.00 | 0.16 | 0.16 | 92 | 1011.2 |
| 20260902095530 | 64 | 186 | 0.0 | 0.0 | 0.00 | 0.16 | 0.16 | 92 | 1010.7 |
| 20260902095030 | 64 | 186 | 0.0 | 0.0 | 0.00 | 0.16 | 0.16 | 92 | 1010.5 |
| 20260902094538 | 64 | 158 | 0.0 | 0.0 | 0.00 | 0.16 | 0.16 | 92 | 1010.5 |
| 20260902094030 | 64 | 158 | 0.0 | 0.0 | 0.00 | 0.16 | 0.16 | 92 | 1010.5 |
| 20260902093530 | 64 | 117 | 0.0 | 0.0 | 0.00 | 0.16 | 0.16 | 92 | 1010.4 |
| 20260902093029 | 64 | 167 | 0.0 | 0.0 | 0.00 | 0.16 | 0.16 | 92 | 1010.9 |
| 20260902092529 | 64 | 159 | 0.0 | 0.0 | 0.00 | 0.16 | 0.16 | 92 | 1010.8 |
| 20260902092031 | 64 | 179 | 0.0 | 0.0 | 0.00 | 0.16 | 0.16 | 92 | 1011.0 |
| 20260902091529 | 64 | 185 | 0.0 | 0.0 | 0.00 | 0.16 | 0.16 | 91 | 1010.6 |
| 20260902091030 | 64 | 96 | 0.0 | 0.0 | 0.00 | 0.16 | 0.16 | 91 | 1009.8 |
| 20260902090529 | 64 | 93 | 0.0 | 14.0 | 0.01 | 0.16 | 0.16 | 92 | 1009.5 |
| 20260902085525 | 64 | 48 | 8.0 | 13.0 | 0.01 | 0.16 | 0.16 | 92 | 1009.2 |
| 20260902085025 | 64 | 58 | 4.0 | 12.0 | 0.01 | 0.16 | 0.16 | 92 | 1009.5 |
| 20260902084533 | 64 | 52 | 6.0 | 10.0 | 0.02 | 0.16 | 0.16 | 92 | 1009.8 |
| 20260902084023 | 64 | 51 | 3.0 | 7.0 | 0.02 | 0.16 | 0.16 | 91 | 1010.3 |
| 20260902083524 | 64 | 78 | 3.0 | 7.0 | 0.02 | 0.16 | 0.16 | 91 | 1010.6 |
| 20260902083021 | 64 | 67 | 2.0 | 8.0 | 0.03 | 0.16 | 0.16 | 91 | 1010.7 |
| 20260902082521 | 64 | 32 | 2.0 | 8.0 | 0.04 | 0.16 | 0.16 | 91 | 1011.1 |
| 20260902082021 | 64 | 46 | 4.0 | 8.0 | 0.06 | 0.16 | 0.16 | 91 | 1010.9 |
| 20260902081519 | 65 | 57 | 2.0 | 4.0 | 0.07 | 0.16 | 0.16 | 91 | 1011.4 |
| 20260902081019 | 65 | 113 | 0.0 | 6.0 | 0.09 | 0.16 | 0.16 | 91 | 1011.4 |
| 20260902080518 | 65 | 113 | 0.0 | 6.0 | 0.10 | 0.16 | 0.16 | 91 | 1011.3 |
| 20260902075518 | 65 | 56 | 1.0 | 9.0 | 0.11 | 0.15 | 0.15 | 91 | 1010.4 |
| 20260902075017 | 66 | 107 | 3.0 | 9.0 | 0.12 | 0.15 | 0.15 | 91 | 1010.2 |
| 20260902074516 | 66 | 69 | 2.0 | 6.0 | 0.13 | 0.15 | 0.15 | 91 | 1010.3 |
| 20260902074015 | 67 | 101 | 2.0 | 6.0 | 0.12 | 0.14 | 0.14 | 91 | 1010.8 |
| 20260902073514 | 67 | 67 | 1.0 | 7.0 | 0.13 | 0.14 | 0.14 | 90 | 1011.2 |
| 20260902073013 | 67 | 112 | 2.0 | 7.0 | 0.12 | 0.13 | 0.13 | 90 | 1011.3 |
| 20260902072512 | 67 | 105 | 4.0 | 9.0 | 0.11 | 0.12 | 0.12 | 89 | 1011.8 |
| 20260902072012 | 68 | 92 | 4.0 | 9.0 | 0.11 | 0.11 | 0.11 | 88 | 1012.4 |
| 20260902071510 | 68 | 109 | 2.0 | 5.0 | 0.09 | 0.09 | 0.09 | 87 | 1013.0 |
| 20260902071014 | 68 | 132 | 2.0 | 5.0 | 0.08 | 0.08 | 0.08 | 87 | 1013.4 |
| 20260902070508 | 68 | 163 | 0.0 | 7.0 | 0.07 | 0.07 | 0.07 | 86 | 1014.0 |
| 20260902065507 | 69 | 242 | 1.0 | 6.0 | 0.05 | 0.05 | 0.05 | 84 | 1014.9 |
| 20260902065006 | 69 | 24 | 0.0 | 3.0 | 0.04 | 0.04 | 0.04 | 82 | 1014.7 |
| 20260902064504 | 70 | 28 | 0.0 | 2.0 | 0.02 | 0.02 | 0.02 | 81 | 1014.1 |
| 20260902064002 | 70 | 29 | 0.0 | 2.0 | 0.02 | 0.02 | 0.02 | 80 | 1013.7 |
| 20260902063502 | 70 | 28 | 1.0 | 2.0 | 0.01 | 0.01 | 0.01 | 79 | 1013.3 |
| 20260902063105 | 71 | 28 | 0.0 | 1.0 | 0.01 | 0.01 | 0.01 | 79 | 1012.7 |
| 20260902062558 | 71 | 28 | 0.0 | 0.0 | 0.01 | 0.01 | 0.01 | 77 | 1012.2 |
| 20260902062058 | 71 | 28 | 0.0 | 0.0 | 0.01 | 0.01 | 0.01 | 75 | 1011.7 |
| 20260902061612 | 71 | 28 | 0.0 | 0.0 | 0.00 | 0.00 | 0.00 | 74 | 1011.4 |
| 20260902061058 | 71 | 28 | 0.0 | 0.0 | 0.00 | 0.00 | 0.00 | 73 | 1011.0 |
| 20260902060600 | 71 | 28 | 0.0 | 0.0 | 0.00 | 0.00 | 0.00 | 74 | 1010.4 |
| 20260902055558 | 71 | 331 | 0.0 | 9.0 | 0.00 | 0.00 | 0.00 | 72 | 1010.2 |
| 20260902055056 | 72 | 296 | 5.0 | 9.0 | 0.00 | 0.00 | 0.00 | 72 | 1010.3 |
| 20260902054555 | 72 | 281 | 2.0 | 5.0 | 0.00 | 0.00 | 0.00 | 72 | 1010.3 |
| 20260902054057 | 72 | 281 | 0.0 | 1.0 | 0.00 | 0.00 | 0.00 | 71 | 1010.6 |
| 20260902053552 | 73 | 281 | 0.0 | 0.0 | 0.00 | 0.00 | 0.00 | 70 | 1011.1 |
| 20260902053052 | 73 | 281 | 0.0 | 0.0 | 0.00 | 0.00 | 0.00 | 68 | 1011.5 |
| 20260902052550 | 74 | 281 | 0.0 | 0.0 | 0.00 | 0.00 | 0.00 | 67 | 1012.0 |
| 20260902052050 | 74 | 281 | 0.0 | 0.0 | 0.00 | 0.00 | 0.00 | 65 | 1012.0 |
| 20260902051551 | 74 | 281 | 0.0 | 0.0 | 0.00 | 0.00 | 0.00 | 65 | 1011.8 |
| 20260902051051 | 74 | 281 | 0.0 | 0.0 | 0.00 | 0.00 | 0.00 | 64 | 1011.4 |
| 20260902050550 | 74 | 281 | 0.0 | 0.0 | 0.00 | 0.00 | 0.00 | 65 | 1011.2 |
| 20260902045552 | 74 | 281 | 0.0 | 0.0 | 0.00 | 0.00 | 0.00 | 65 | 1010.9 |
| 20260902045049 | 74 | 281 | 0.0 | 0.0 | 0.00 | 0.00 | 0.00 | 65 | 1010.7 |
| 20260902044550 | 74 | 278 | 0.0 | 0.0 | 0.00 | 0.00 | 0.00 | 65 | 1010.8 |
| 20260902044050 | 74 | 275 | 0.0 | 0.0 | 0.00 | 0.00 | 0.00 | 66 | 1010.7 |
| 20260902043549 | 74 | 275 | 0.0 | 0.0 | 0.00 | 0.00 | 0.00 | 66 | 1010.8 |
| 20260902043052 | 74 | 272 | 0.0 | 0.0 | 0.00 | 0.00 | 0.00 | 66 | 1010.8 |
| 20260902042550 | 75 | 271 | 0.0 | 0.0 | 0.00 | 0.00 | 0.00 | 65 | 1010.6 |
| 20260902042047 | 75 | 271 | 0.0 | 0.0 | 0.00 | 0.00 | 0.00 | 64 | 1010.6 |
| 20260902041547 | 75 | 271 | 0.0 | 0.0 | 0.00 | 0.00 | 0.00 | 63 | 1010.7 |
| 20260902041047 | 75 | 271 | 0.0 | 0.0 | 0.00 | 0.00 | 0.00 | 63 | 1010.7 |
| 20260902040551 | 76 | 271 | 0.0 | 0.0 | 0.00 | 0.00 | 0.00 | 62 | 1010.7 |